STARLINK-3861 (52503 NORAD) Tracking and Keplerian Element Data
This shows tracking and keplerian element data for the satellite.
Feedback or suggestion? Click here.
Element | Value |
Catalog | 52503 |
Name | STARLINK-3861 |
Epoch Orbit | 1069 |
Epoch Day | 193.25001157 |
Epoch Year | 2022 |
RAAN | 295.4606 |
Inclination | 53.2167 |
Eccentricity | 0.0002974 |
Argument of Perigee | 12.1962 |
Mean Anonmoly | 108.3215 |
Mean Motion | 15.72838663 |
Decay Rate | 0.00530843 |
L1 | 1 52503U 22049BE 22193.25001157 .00530843 00000+0 36081-2 0 9992 |
L2 | 2 52503 53.2167 295.4606 0002974 12.1962 108.3215 15.72838663 10691 |
Live tracking and technical data element details for STARLINK-3861 (NORAD 52503). STARLINK-3861 can be tracked NOW for your location showing map with azimuth and elevation plus other details from your city location.
Track the satellite on the map from your city or location and see movement details for azimuth, elevation, latitude, longitude, range, height, and movement on the map or in text.
IsCatalogInMostPopularTable: catalog: 52503, numindb: 5
Update: records affected: 1
GetName: 52503 STARLINK-3861
Hit Count: updated at: Sat, 13 Aug 2022 23:46:41 GMT